Temperature
31 31 32 33 34 33 33 33 33 34 35 34 33 33 33 33 32 32 30 29 27 25 24 23 22 21 20 20 20 19 19 19 19 19 19 18 18 18 18 18 18 18 18 18
31 31 33 34 34 33 33 33 33 34 35 34 33 33 34 33 33 32 31 29 27 26 24 22 21 21 20 19 19 19 19 19 19 19 19 18 18 18 18 18 18 18 18 18
31 33 34 33 33 32 33 33 33 33 34 34 34 32 32 32 32 31 31 29 28 26 24 22 21 21 20 19 19 19 19 19 19 18 18 18 18 18 18 18 18 18 18 18
32 33 33 33 32 33 32 34 33 33 33 32 33 31 31 31 31 32 31 30 28 27 25 23 22 21 20 19 19 19 19 19 19 18 18 18 18 18 18 18 18 18 18 18
32 33 32 32 33 33 33 34 33 33 32 32 32 32 31 32 31 31 31 30 28 27 25 23 22 21 20 19 19 19 19 18 18 18 18 18 18 18 18 18 18 18 18 18
33 34 33 33 33 34 33 33 33 33 32 30 31 31 31 31 31 32 31 30 28 27 25 23 22 21 20 19 19 19 18 18 18 18 18 18 18 18 18 18 18 18 18 18
31 32 33 33 33 33 33 31 30 30 30 30 31 32 31 32 33 33 31 30 28 26 25 24 22 21 20 20 19 19 18 18 18 18 18 18 18 18 18 18 18 18 18 18
30 31 32 33 32 32 32 32 30 29 29 30 30 30 31 33 33 32 31 30 28 26 25 24 22 21 20 20 19 19 19 18 18 18 18 18 18 18 18 18 18 18 18 18
32 31 33 33 33 33 32 32 33 32 31 30 30 31 31 32 32 32 31 30 28 27 25 24 23 22 21 20 20 19 19 19 18 18 18 18 18 18 18 18 18 18 18 18
32 31 33 33 33 33 33 33 32 31 30 29 30 30 30 31 31 31 31 29 28 27 26 24 23 22 21 20 20 19 19 19 19 19 18 18 18 18 18 18 18 18 18 18
32 31 32 32 31 31 32 31 31 31 31 30 29 28 30 30 31 31 31 29 28 27 26 25 23 22 22 21 20 19 19 19 19 19 19 18 18 18 18 18 18 18 18 18
32 31 31 32 33 33 33 32 31 30 30 30 30 29 31 31 32 31 30 29 28 27 26 25 24 23 22 21 20 20 19 19 19 18 18 18 18 18 18 18 18 18 18 17
31 30 29 30 31 32 32 32 32 32 31 30 30 29 31 31 31 31 29 28 28 27 26 25 24 23 22 21 21 20 19 19 19 18 18 18 18 18 18 18 18 18 17 17
30 30 29 29 30 31 31 32 32 32 31 30 30 29 29 29 30 30 29 28 27 26 26 25 24 23 22 21 21 20 20 19 19 18 18 18 18 18 18 17 17 17 17 17
30 29 29 30 31 32 32 32 32 32 32 31 30 29 29 29 30 29 29 28 27 26 25 24 23 22 22 21 20 20 20 19 19 18 18 18 18 18 17 17 17 17 17 17
29 28 29 29 31 32 32 32 32 32 32 32 31 30 30 29 29 29 28 28 27 26 25 24 23 22 21 21 20 20 19 19 19 18 18 18 17 17 17 17 17 16 16 16
29 27 27 28 30 31 30 32 32 32 32 32 30 30 30 29 28 28 28 27 27 26 25 24 23 22 21 20 20 20 19 19 18 18 18 17 17 17 17 16 16 16 16 16
27 26 27 28 28 27 30 33 32 32 31 32 31 30 30 28 27 27 26 26 26 25 24 23 23 22 21 20 20 19 19 18 18 18 17 17 17 17 17 16 16 16 15 15
28 27 27 27 28 28 30 31 31 31 30 30 30 30 29 28 27 26 25 25 24 24 23 23 22 22 21 20 20 19 19 18 18 17 17 17 17 17 16 16 15 15 15 15
28 27 26 27 26 27 28 30 30 31 28 29 29 28 27 27 27 25 24 24 23 23 23 22 22 21 20 20 19 19 18 18 17 17 17 17 17 16 16 15 15 15 15 14
26 26 25 26 26 27 27 28 29 28 26 27 27 27 26 25 25 23 23 23 22 22 22 21 21 20 20 19 19 18 18 17 17 17 17 17 16 16 16 15 15 14 14 14
26 26 25 25 25 25 26 27 26 24 25 25 25 25 24 23 22 22 21 21 21 21 21 20 20 19 19 18 18 18 17 17 17 17 16 16 16 15 15 15 14 14 14 14
26 26 26 25 24 24 24 24 24 24 24 24 24 23 23 22 21 21 20 20 20 20 20 19 19 18 18 18 17 17 17 16 16 16 16 15 15 15 15 14 14 14 13 13
26 26 25 24 24 24 24 23 23 23 23 23 23 23 22 22 21 20 20 19 19 19 18 18 18 17 17 17 17 16 16 16 15 15 15 14 14 14 14 14 13 13 13 13
24 25 24 23 23 23 23 23 23 22 22 22 22 22 21 21 20 19 19 18 18 18 17 17 17 17 16 16 16 16 15 15 15 15 14 14 14 13 13 13 13 13 12 12
24 23 23 22 22 22 22 22 21 21 21 21 21 21 20 20 19 19 18 18 17 17 16 16 16 16 16 15 15 15 15 15 15 14 14 14 13 13 13 13 12 12 12 12
Wind_Speed
9 10 11 10 10 9 9 10 7 4 2 4 5 4 3 5 5 6 9 10 10 10 11 10 10 10 9 9 9 9 9 8 6 6 6 5 4 3 3 4 8 8 7 7
11 14 13 10 7 7 9 9 9 6 2 5 6 6 3 5 5 5 8 11 11 10 11 11 10 10 10 9 9 8 8 8 8 6 5 4 4 3 4 3 6 8 8 8
15 8 7 9 8 9 10 10 8 8 7 9 9 7 3 2 2 6 6 9 12 12 13 12 11 9 9 9 9 8 8 8 8 7 5 5 4 3 3 4 4 5 7 8
14 12 7 8 10 10 11 9 8 9 10 9 9 5 4 7 6 6 7 8 11 12 12 12 11 10 9 9 8 7 7 7 7 7 7 8 7 6 5 5 5 5 6 6
12 12 10 11 11 11 11 8 8 10 11 11 11 8 3 7 5 6 6 7 11 11 12 11 10 9 8 8 8 7 7 6 7 7 7 7 6 5 4 4 5 5 5 5
15 11 10 11 11 11 10 9 10 12 11 11 11 8 1 4 4 5 8 8 10 11 11 11 10 9 7 8 7 8 7 6 6 7 6 6 6 5 4 4 5 5 4 5
15 15 11 9 11 11 10 9 8 8 7 7 8 6 3 6 5 5 8 9 10 10 10 10 10 10 8 8 8 8 8 7 7 7 6 6 5 6 6 5 5 5 4 4
15 14 15 12 13 10 12 13 10 7 6 3 2 2 4 6 7 7 8 9 10 11 10 10 10 10 9 8 8 7 7 7 7 6 6 5 5 5 4 5 4 4 4 4
11 13 14 13 12 15 13 13 15 14 13 9 4 4 7 8 8 8 9 9 9 10 10 10 10 10 9 9 8 7 7 6 6 6 5 5 4 4 3 3 3 3 2 3
13 9 11 13 10 14 15 12 9 10 8 8 6 4 3 8 9 9 8 9 9 11 11 10 9 10 9 9 8 7 6 6 4 5 5 5 5 4 3 3 2 2 1 1
16 11 10 13 12 14 13 13 11 9 8 9 5 1 3 5 7 9 9 9 10 10 11 11 10 9 9 9 9 8 7 6 5 4 4 4 4 4 4 2 2 2 2 2
14 10 11 12 13 14 13 14 13 9 8 9 8 2 6 4 7 8 9 9 10 9 9 11 11 10 9 9 9 8 7 6 5 4 4 4 4 3 3 3 2 2 2 1
10 9 11 12 12 14 12 13 14 13 10 10 8 2 4 2 5 9 10 9 9 9 9 9 10 9 9 8 8 8 8 7 6 6 5 4 4 3 3 3 3 3 3 2
7 10 13 13 9 12 14 15 14 14 12 11 8 5 6 4 4 7 9 9 9 8 8 8 8 7 7 7 7 7 7 7 7 7 6 5 4 3 3 3 3 3 3 3
8 13 15 16 15 12 13 15 15 15 14 12 5 4 4 4 5 7 7 8 9 9 9 8 7 7 6 6 7 6 6 7 7 7 6 5 4 4 3 3 3 3 4 4
9 10 13 16 17 15 14 13 13 14 13 12 8 3 4 5 5 5 6 6 7 7 8 8 8 8 7 6 6 6 6 6 6 6 6 6 5 5 4 4 4 4 4 4
11 8 11 13 15 14 16 12 12 12 10 9 6 3 5 6 6 4 4 5 5 5 6 7 8 8 7 7 6 6 6 7 7 6 6 6 6 5 4 4 4 4 4 5
7 7 8 12 12 15 11 9 9 8 6 4 3 3 6 7 7 5 4 4 5 4 4 5 5 6 7 7 7 6 7 7 7 7 6 6 6 6 5 5 5 4 5 5
8 7 9 11 13 13 9 6 7 7 3 1 2 4 6 6 7 6 6 6 4 4 4 4 4 6 6 6 6 6 6 7 7 6 6 6 6 6 6 5 5 4 5 6
10 7 9 10 11 10 3 3 5 6 4 3 3 4 5 3 3 3 5 5 4 5 5 4 5 6 6 6 6 6 6 6 6 6 6 6 6 6 6 6 5 5 5 6
13 11 13 13 12 6 4 5 5 5 2 4 5 6 6 4 4 6 7 6 6 7 6 7 6 6 6 6 6 5 5 5 5 6 6 6 6 6 6 6 5 5 6 6
13 12 12 12 13 5 7 2 2 6 7 8 7 8 9 9 9 9 8 7 7 6 7 7 7 7 6 5 5 5 5 5 6 7 7 7 6 5 5 6 5 5 6 7
7 3 2 2 1 5 8 8 7 7 6 6 7 8 8 8 7 7 7 6 6 6 6 6 7 6 5 4 4 5 5 5 7 7 7 6 6 5 5 5 5 5 4 4
4 2 1 2 5 5 5 7 6 6 6 6 6 6 6 6 5 6 6 5 5 5 5 6 6 6 5 5 5 5 5 6 7 7 7 6 6 5 4 3 3 3 2 3
2 0 2 2 2 3 4 5 6 7 6 6 6 6 5 5 5 5 5 5 5 5 5 5 5 5 5 5 5 5 4 5 7 7 7 6 6 6 6 6 5 4 5 3
3 3 1 0 3 2 4 5 5 4 4 5 5 5 4 4 5 5 4 5 4 5 5 5 5 5 5 5 5 5 4 4 6 6 6 6 5 6 6 7 8 13 10 12
Wind_Direction
224 238 244 243 240 264 299 307 308 311 358 306 296 281 207 160 176 163 154 155 158 159 158 151 152 156 158 157 162 166 171 175 176 173 174 181 191 188 173 168 164 169 180 182
232 233 246 263 277 279 278 280 282 286 305 287 283 288 251 168 174 160 159 158 161 159 153 151 156 161 162 164 170 176 178 177 180 178 177 177 181 195 185 180 163 178 179 185
235 240 226 249 258 260 262 266 281 301 304 278 267 262 233 184 166 152 163 158 158 163 158 158 164 164 164 170 178 181 176 177 181 178 183 179 174 193 185 170 174 188 186 193
240 247 246 244 248 248 257 264 279 287 287 290 289 280 186 174 196 174 159 158 157 157 155 158 163 165 171 176 176 167 172 176 176 185 196 191 190 192 192 183 182 187 194 195
234 232 233 241 245 249 262 284 284 275 276 280 281 281 186 166 165 164 150 146 142 147 152 155 159 159 167 169 166 164 168 176 181 193 203 201 201 200 191 182 175 187 194 199
248 239 229 237 243 247 259 270 271 263 265 265 265 271 181 125 135 145 134 128 133 141 145 149 153 152 158 159 161 166 167 178 187 195 203 205 205 196 192 192 180 193 200 205
235 238 228 235 242 228 235 246 254 250 241 250 259 256 113 112 104 106 121 130 128 134 144 147 148 150 155 157 160 164 169 180 188 196 204 207 206 200 198 204 196 199 207 210
216 225 215 218 234 231 222 237 249 271 281 288 234 262 119 110 105 109 117 124 133 141 147 145 147 151 156 157 160 162 167 179 192 198 200 202 201 207 204 206 206 206 212 217
223 224 202 204 220 240 232 233 252 267 276 278 245 184 149 131 130 126 125 130 138 142 139 142 149 153 155 158 160 161 164 173 185 190 188 190 196 207 207 195 199 208 214 208
260 253 205 191 211 232 248 250 256 264 281 284 263 256 151 141 141 133 131 132 132 133 139 145 150 153 153 153 152 155 156 161 164 169 185 177 184 190 191 197 193 184 184 135
244 258 229 191 206 226 223 243 257 274 273 279 280 81 116 143 145 140 137 133 135 140 143 145 148 151 151 148 152 154 148 148 156 166 165 152 162 175 176 176 172 149 126 134
225 244 249 219 211 228 230 229 235 247 265 277 283 188 147 154 141 131 125 131 135 137 138 140 143 148 151 151 150 150 151 155 152 146 141 137 140 152 157 161 153 134 124 122
216 239 244 235 217 208 231 235 233 239 251 264 271 140 116 131 129 124 124 129 134 135 134 134 141 149 151 151 148 150 156 154 149 144 137 130 134 137 140 134 127 127 127 124
228 233 245 245 235 208 217 234 235 237 241 245 250 190 165 178 141 118 124 134 137 136 134 133 135 139 140 139 140 146 151 146 144 138 134 132 136 133 125 120 114 116 119 109
229 232 245 263 269 258 227 226 231 236 248 259 243 198 154 159 142 130 133 135 141 146 143 141 141 137 138 137 141 144 141 139 139 136 136 136 128 123 120 118 114 109 109 112
218 250 248 253 260 260 253 230 226 234 241 248 254 220 149 135 127 126 132 138 141 150 151 151 151 150 152 151 150 145 140 135 132 135 139 134 126 124 123 119 115 110 108 109
204 226 251 252 250 254 251 241 233 231 235 238 243 177 146 130 116 118 135 138 130 143 144 152 154 154 157 159 157 152 145 143 142 141 140 137 135 127 120 119 114 110 109 107
212 217 245 254 255 247 247 248 241 239 234 231 167 139 121 112 106 92 85 108 120 116 128 133 143 143 151 155 154 150 148 146 147 146 143 141 135 129 121 118 114 113 111 109
211 214 240 250 247 243 242 245 239 222 192 31 87 102 104 107 117 93 67 66 82 105 99 116 131 137 136 138 142 145 148 148 149 149 145 142 134 128 123 120 114 110 109 107
213 204 235 249 253 248 264 268 264 231 175 57 64 88 102 113 157 104 85 85 81 83 94 97 108 114 119 122 129 136 143 144 151 148 140 136 132 128 125 121 119 116 112 106
207 209 225 244 251 256 338 338 295 231 118 53 63 73 83 70 74 87 80 83 82 82 84 92 94 100 109 118 125 132 136 136 131 121 116 118 122 123 121 119 118 120 117 111
206 212 216 235 245 246 11 38 47 66 53 51 56 64 77 77 80 87 83 75 74 80 84 90 88 90 96 112 123 126 121 114 114 116 116 114 113 118 121 120 119 122 126 124
211 213 227 216 180 75 53 68 71 77 71 63 67 67 84 92 96 95 88 82 77 75 81 89 93 92 92 101 116 121 118 117 117 117 116 113 108 105 115 126 134 143 150 144
194 166 185 103 113 96 81 79 69 66 63 65 68 69 76 92 100 107 106 98 89 84 83 87 92 95 89 84 93 108 119 124 127 126 125 124 120 115 107 108 116 123 128 138
353 227 197 183 136 105 78 73 69 64 56 61 59 62 66 83 94 99 98 95 95 93 84 86 92 95 92 89 91 99 114 131 134 136 137 134 127 118 95 74 53 64 58 64
337 342 290 135 64 72 83 67 61 59 50 52 59 57 60 79 96 100 98 99 97 94 88 88 94 98 97 93 89 86 94 125 137 139 139 134 133 127 120 112 85 56 63 63
Height
1500 1500 1497 1490 1486 1487 1489 1488 1488 1482 1477 1482 1485 1485 1484 1486 1490 1494 1499 1504 1510 1514 1518 1521 1524 1526 1527 1529 1530 1532 1535 1538 1540 1543 1546 1548 1550 1553 1555 1557 1558 1561 1563 1565
1498 1498 1489 1485 1484 1487 1490 1493 1490 1482 1477 1482 1485 1485 1481 1484 1488 1492 1496 1502 1507 1512 1516 1520 1522 1525 1526 1527 1529 1530 1532 1535 1538 1541 1544 1547 1549 1552 1554 1556 1557 1559 1561 1563
1496 1488 1485 1487 1489 1492 1492 1492 1490 1488 1482 1479 1483 1489 1485 1486 1488 1492 1495 1499 1504 1510 1514 1518 1521 1523 1525 1526 1527 1529 1530 1533 1536 1539 1543 1545 1548 1550 1552 1554 1555 1558 1560 1561
1489 1484 1486 1489 1491 1491 1495 1484 1485 1488 1492 1493 1486 1503 1491 1487 1489 1489 1493 1498 1502 1507 1512 1516 1519 1522 1523 1525 1526 1527 1529 1531 1534 1538 1540 1543 1545 1547 1550 1552 1554 1556 1558 1560
1487 1483 1487 1491 1489 1487 1488 1482 1485 1487 1492 1496 1489 1496 1493 1485 1490 1489 1491 1495 1500 1506 1511 1515 1518 1520 1523 1524 1525 1526 1528 1531 1533 1536 1538 1541 1544 1546 1549 1550 1552 1554 1556 1557
1482 1479 1482 1484 1484 1484 1484 1486 1488 1488 1492 1509 1495 1498 1499 1487 1487 1486 1489 1495 1501 1506 1511 1515 1517 1520 1522 1524 1524 1526 1527 1530 1532 1535 1537 1539 1542 1544 1546 1548 1550 1552 1554 1555
1488 1481 1479 1482 1485 1484 1487 1499 1510 1512 1512 1512 1490 1493 1493 1481 1480 1484 1489 1495 1501 1506 1510 1514 1517 1519 1521 1523 1524 1525 1527 1528 1531 1533 1535 1537 1540 1542 1544 1546 1548 1550 1551 1552
1493 1491 1479 1480 1485 1487 1488 1494 1513 1521 1519 1507 1496 1498 1487 1477 1481 1485 1490 1496 1501 1506 1510 1514 1517 1519 1521 1522 1524 1525 1526 1527 1529 1531 1534 1536 1538 1540 1542 1545 1546 1548 1549 1550
1480 1484 1470 1475 1478 1481 1487 1489 1483 1494 1499 1507 1500 1491 1483 1477 1482 1486 1490 1496 1501 1505 1510 1513 1517 1519 1521 1522 1524 1525 1526 1527 1529 1530 1532 1534 1536 1539 1541 1543 1544 1545 1547 1548
1471 1481 1470 1472 1477 1478 1479 1480 1486 1495 1510 1515 1506 1499 1494 1486 1484 1486 1490 1495 1500 1505 1509 1514 1517 1519 1521 1522 1524 1525 1526 1527 1529 1530 1532 1533 1535 1537 1539 1541 1542 1543 1545 1546
1471 1481 1475 1473 1481 1483 1484 1486 1487 1489 1491 1507 1515 1513 1485 1483 1483 1486 1490 1495 1500 1504 1508 1512 1516 1519 1521 1522 1524 1525 1526 1528 1529 1530 1531 1533 1534 1536 1538 1539 1540 1542 1543 1544
1471 1476 1481 1474 1469 1471 1474 1480 1485 1500 1500 1494 1503 1504 1480 1481 1482 1485 1490 1495 1500 1504 1508 1512 1515 1518 1521 1522 1524 1525 1527 1528 1529 1530 1531 1532 1534 1535 1537 1538 1539 1540 1541 1542
1471 1479 1492 1488 1479 1473 1476 1475 1476 1481 1489 1495 1501 1504 1481 1484 1483 1486 1491 1496 1500 1504 1507 1511 1514 1517 1520 1522 1524 1525 1527 1528 1529 1530 1531 1532 1533 1534 1535 1537 1538 1539 1539 1541
1472 1479 1487 1491 1483 1474 1479 1476 1473 1479 1488 1493 1492 1495 1487 1485 1486 1488 1492 1496 1500 1504 1508 1511 1514 1517 1520 1522 1523 1525 1527 1528 1529 1530 1531 1531 1533 1534 1535 1536 1537 1538 1538 1539
1473 1481 1480 1475 1469 1466 1469 1472 1472 1476 1478 1483 1484 1487 1486 1486 1486 1489 1492 1496 1499 1504 1508 1511 1515 1517 1519 1521 1523 1525 1526 1528 1529 1529 1530 1531 1532 1533 1534 1535 1535 1536 1537 1538
1475 1480 1480 1479 1470 1466 1468 1465 1468 1471 1471 1474 1478 1483 1480 1484 1487 1490 1493 1496 1499 1503 1507 1511 1514 1517 1519 1521 1523 1524 1525 1526 1528 1529 1530 1531 1532 1533 1533 1534 1534 1535 1535 1536
1475 1484 1487 1485 1473 1471 1477 1466 1466 1467 1467 1471 1479 1481 1479 1484 1488 1492 1494 1497 1499 1503 1507 1510 1512 1515 1517 1520 1522 1523 1524 1526 1527 1528 1529 1530 1531 1532 1533 1533 1534 1534 1534 1535
1477 1484 1485 1485 1483 1495 1474 1458 1459 1464 1467 1468 1472 1475 1480 1485 1490 1494 1496 1497 1500 1503 1506 1509 1511 1513 1516 1519 1520 1522 1523 1525 1526 1527 1528 1530 1531 1531 1532 1533 1533 1534 1534 1535
1474 1481 1486 1486 1488 1482 1468 1461 1461 1467 1473 1472 1474 1477 1482 1486 1491 1496 1498 1499 1501 1504 1506 1509 1511 1513 1515 1517 1519 1521 1522 1524 1525 1526 1527 1529 1530 1530 1531 1532 1533 1533 1534 1534
1473 1478 1487 1487 1492 1491 1476 1464 1464 1467 1479 1476 1478 1481 1485 1488 1493 1499 1500 1501 1502 1505 1507 1508 1511 1512 1514 1516 1518 1520 1521 1523 1524 1525 1526 1528 1529 1530 1530 1531 1532 1533 1534 1534
1479 1482 1487 1488 1490 1482 1474 1469 1469 1483 1489 1481 1482 1485 1489 1492 1496 1500 1500 1502 1504 1506 1507 1509 1511 1512 1514 1515 1517 1519 1520 1522 1523 1524 1525 1527 1528 1529 1530 1531 1532 1533 1533 1534
1475 1480 1485 1486 1491 1492 1479 1475 1482 1488 1486 1485 1488 1490 1492 1495 1497 1500 1502 1504 1505 1507 1508 1509 1511 1512 1514 1515 1517 1518 1519 1521 1522 1523 1524 1525 1527 1528 1529 1530 1531 1532 1533 1534
1469 1473 1476 1482 1488 1486 1484 1485 1487 1488 1490 1491 1492 1494 1496 1497 1500 1502 1504 1506 1507 1508 1509 1510 1511 1512 1514 1515 1516 1517 1519 1520 1521 1522 1523 1524 1525 1527 1528 1529 1531 1532 1533 1534
1471 1472 1476 1482 1484 1487 1488 1489 1491 1492 1493 1494 1496 1497 1498 1500 1502 1504 1506 1507 1508 1509 1510 1511 1512 1512 1514 1515 1516 1517 1518 1519 1520 1521 1522 1524 1525 1526 1527 1529 1530 1531 1532 1534
1475 1475 1477 1483 1486 1488 1491 1492 1494 1495 1496 1497 1498 1499 1501 1502 1504 1505 1507 1508 1509 1510 1511 1511 1512 1512 1513 1514 1515 1516 1517 1518 1518 1520 1521 1523 1524 1526 1527 1528 1529 1530 1532 1533
1479 1480 1482 1487 1490 1491 1494 1495 1496 1497 1498 1499 1500 1502 1503 1504 1505 1506 1507 1508 1509 1510 1511 1511 1512 1512 1512 1513 1514 1515 1516 1517 1518 1519 1520 1522 1524 1525 1526 1527 1528 1530 1531 1533